Regional Weather Roundup
Issued by NWS

Home | Current Version | Previous Version | Graphics & Text | Print | Product List | Glossary On
Versions: 1 2 3 4 5 6 7 8 9 10 11 12 13 14 15 16 17 18 19 20 21 22 23 24 25 26 27 28 29 30 31 32 33 34 35 36 37 38 39 40 41 42 43 44 45 46 47 48 49 50
000
ASUS43 KDMX 290007
RWRIA

WEATHER ROUNDUP FOR IOWA
NATIONAL WEATHER SERVICE DES MOINES IA
700 PM CDT SAT MAR 28 2015

NOTE: "FAIR" INDICATES FEW OR NO CLOUDS BELOW 12,000 FEET WITH NO
SIGNIFICANT WEATHER AND/OR OBSTRUCTIONS TO VISIBILITY.

* - THESE STATIONS ARE NOT NWS STATIONS...THUS NOT UNDER NWS
QUALITY CONTROL.  THEY ALSO DO NOT REPORT WEATHER SUCH
AS PRECIPITATION OR FOG.

IAZ001>003-012>014-020>022-031>034-043>046-290100-
   NORTHWEST IOWA

CITY           SKY/WX    TMP DP  RH WIND       PRES   REMARKS
CARROLL *      CLEAR     46  25  42 S18       30.06F
CHEROKEE *     CLEAR     49  28  43 S14G22    30.01S
DENISON *      CLEAR     48  27  43 S17G23    30.01F
LE MARS *      CLEAR     52  28  40 S16G25    29.97F
ORANGE CITY *  CLEAR     52  25  35 S17       29.97F
SHELDON *      CLEAR     48  28  46 S21       29.96F
SIOUX CITY     CLEAR     53  28  38 S15G24    29.98F
6HR MIN TEMP:  49; 6HR MAX TEMP:  56;

SPENCER        CLEAR     48  29  47 S21G26    30.01F
6HR MIN TEMP:  41; 6HR MAX TEMP:  50;

STORM LAKE *   CLEAR     46  28  49 S20       30.01F
$$

IAZ055>058-069>071-079>083-090>094-290100-
   SOUTHWEST IOWA

CITY           SKY/WX    TMP DP  RH WIND       PRES   REMARKS
ATLANTIC *     CLEAR     48  28  46 S15G21    30.06F
AUDUBON *      CLEAR     48  27  43 S10G17    30.07F
CLARINDA *     CLEAR     50  30  46 SE13      30.10F
COUNCIL BLFS * CLEAR     50  32  50 S18G24    30.04S
CRESTON *      CLEAR     45  27  49 SE14G20   30.11S
HARLAN  *      CLEAR     50  28  43 S15G21    30.08F
LAMONI         CLEAR     46  27  47 S8        30.13S
6HR MIN TEMP:  43; 6HR MAX TEMP:  49;

RED OAK *      CLEAR     50  30  46 S17       30.07F
SHENANDOAH *   CLEAR     50  32  50 SE16G22   30.08S
$$

IAZ047>049-059>061-072>074-084-290100-
   CENTRAL IOWA

CITY           SKY/WX    TMP DP  RH WIND       PRES   REMARKS
AMES           CLEAR     45  18  34 S14       30.12S
6HR MIN TEMP:  44; 6HR MAX TEMP:  49;

ANKENY *       CLEAR     46  19  34 S13G20    30.12S
CHARITON *     CLEAR     45  21  39 S14       30.14S
DES MOINES     PTCLDY    48  19  31 S15       30.13S
6HR MIN TEMP:  45; 6HR MAX TEMP:  50;

GRINNELL*      CLEAR     43  15  32 SE14      30.16S
KNOXVILLE *    CLEAR     45  18  33 SE13      30.13F
MARSHALLTOWN   CLEAR     43  16  33 SE14G22   30.13F
6HR MIN TEMP:  41; 6HR MAX TEMP:  46;

PELLA *        CLEAR     45  23  41 SE12      30.16S
PERRY *          N/A     47  23  38 SE16      30.10S
$$

IAZ004>006-015-016-023>025-035-036-290100-
   NORTH CENTRAL IOWA

CITY           SKY/WX    TMP DP  RH WIND       PRES   REMARKS
ALGONA *       CLEAR     45  23  42 S20G25    30.05F
CLARION *      CLEAR     43  25  49 S17       30.09S
ESTHERVILLE    CLEAR     45  26  47 S20       30.01F
6HR MIN TEMP:  41; 6HR MAX TEMP:  47;

FORT DODGE *   CLEAR     46  19  34 S13G22    30.08F
MASON CITY     CLEAR     42  21  43 S17       30.11S
6HR MIN TEMP:  40; 6HR MAX TEMP:  45;

FOREST CITY *  CLEAR     41  23  48 S14       30.08F
IOWA FALLS *     N/A     43  21  42 SE10      30.12F
$$

IAZ007>011-017>019-026>030-037>042-050>054-066-290100-
   NORTHEAST IOWA

CITY           SKY/WX    TMP DP  RH WIND       PRES   REMARKS
CEDAR RAPIDS   CLEAR     40  14  34 S10       30.18F WCI  33
6HR MIN TEMP:  38; 6HR MAX TEMP:  43;

CHARLES CITY * CLEAR     39  19  45 S13G20    30.13F WCI  32
CLINTON *      CLEAR     37  12  35 S9        30.26S WCI  31
DECORAH *      CLEAR     37  19  48 S7        30.15S WCI  32
DUBUQUE        CLEAR     36  12  37 S9        30.21S WCI  29
6HR MIN TEMP:  35; 6HR MAX TEMP:  40;

MONTICELLO *   CLEAR     39  16  38 S9        30.21R WCI  33
OELWEIN *      CLEAR     39  16  38 S12       30.17F WCI  32
WATERLOO       CLEAR     41  14  33 S16       30.15F
6HR MIN TEMP:  40; 6HR MAX TEMP:  45;

$$

IAZ064-065-067-068-078-290100-
   EAST CENTRAL IOWA

CITY           SKY/WX    TMP DP  RH WIND       PRES   REMARKS
DAVENPORT      CLEAR     39  11  31 SE13      30.23F WCI  31
6HR MIN TEMP:  36; 6HR MAX TEMP:  42;

IOWA CITY      CLEAR     40  13  33 SE12      30.22F WCI  33
6HR MIN TEMP:  39; 6HR MAX TEMP:  44;

MT. PLEASANT * CLEAR     40  14  34 S8        30.21F WCI  35
MUSCATINE *    CLEAR     41  12  30 S12       30.23S
QUAD CITIES    CLEAR     39  10  30 S9        30.23F WCI  33
6HR MIN TEMP:  37; 6HR MAX TEMP:  42;

$$

IAZ062-063-075>077-085>089-095>099-290100-
   SOUTHEAST IOWA

CITY           SKY/WX    TMP DP  RH WIND       PRES   REMARKS
BURLINGTON     CLEAR     41  13  31 SE9       30.22F
6HR MIN TEMP:  39; 6HR MAX TEMP:  44;

FAIRFIELD *    CLEAR     41  14  33 SE10G17   30.20S
FORT MADISON * CLEAR     39  16  38 SE8       30.23S WCI  34
KEOKUK *       CLEAR     41  16  36 SE10      30.22S
OSKALOOSA *      N/A     43  16  34 SE13      30.18S
CENTERVILLE *  CLEAR     43  23  45 SE12      30.18S
OTTUMWA        CLEAR     43  15  32 SE14      30.17S
6HR MIN TEMP:  42; 6HR MAX TEMP:  47;

WASHINGTON *   CLEAR     41  14  33 SE13      30.21S
$$

ABBREVIATIONS USED IN REMARKS
   TC - TEMPERATURES IN CELSIUS
  WCI - WIND CHILL INDEX
   HX - HEAT INDEX
  VSB - VISIBILITY
$$




USA.gov is the U.S. government's official web portal to all federal, state and local government web resources and services.